Current Version              Previous Version:    01  02  03  04  05  06  07  08  09  10  11  12  13  14  15  16  17  18  19  20  21  22  23  24  25  26  27  28  29  30  
   31  32  33  34  35  36  37  38  39  40  41  42  43  44  45  46  47  48  49  50  51  52  53  54  55  56  57  58  59  60  

[Printable]
722
ASUS44 KFWD 311615
RWRTX
NORTH TEXAS HOURLY WEATHER ROUNDUP
NATIONAL WEATHER SERVICE FORT WORTH TX
1100 AM CDT THU JUL 31 2014

NOTE: "FAIR" INDICATES FEW OR NO CLOUDS BELOW 12,000 FEET WITH NO
SIGNIFICANT WEATHER AND/OR OBSTRUCTIONS TO VISIBILITY.

TXZ118-119-311700-
DALLAS/FORT WORTH METROPLEX

CITY           SKY/WX    TMP DP  RH WIND       PRES   REMARKS
DFW AIRPORT    LGT RAIN  77  72  84 NW12      29.97R
DALLAS LOVE    PTSUNNY   83  68  60 SW7       29.96S
FTW MEACHAM    CLOUDY    73  70  90 NW10      29.99R FOG
DAL-EXECUTIVE  CLOUDY    84  68  58 VRB6      29.96S
FTW-ALLIANCE   CLOUDY    73  69  87 NW9       29.98R
FTW-NAS-JRB    PTSUNNY   75  69  81 NW12      30.03R
FTW-SPINKS     DRZL/FOG  77  72  83 NW12      30.00R VSB 1
ARLINGTON      CLOUDY    81  65  58 VRB3      29.97R
GRAND PRAIRIE  CLOUDY    79  68  69 SW7       29.98S
ADDISON        CLOUDY    79  72  78 SW6       29.97S
MESQUITE       MOSUNNY   82  72  69 S8          N/A
LANCASTER      PTSUNNY   82  69  62 SW8       29.97S
$$

TXZ091>094-102>105-117-120-121-131>134-311700-
NORTH CENTRAL TEXAS

CITY           SKY/WX    TMP DP  RH WIND       PRES   REMARKS
SHRMAN/DENISON CLOUDY    70  67  92 N9        30.00S FOG
GAINESVILLE    CLOUDY    67  66  97 N10       30.04R FOG
BOWIE          CLOUDY    69  67  91 N13       30.04S
BRIDGEPORT     CLOUDY    73  65  74 N9G18     30.04R
DECATUR        CLOUDY    69  68  95 N9        30.02R
DENTON         CLOUDY    70  69  97 N13       29.99R
MCKINNEY       CLOUDY    77  73  87 S6        29.96F
GREENVILLE     LGT RAIN  72  70  94 SE8       29.97F
ROCKWALL       CLOUDY    76  75  97 SE3       29.95F
TERRELL        CLOUDY    79  76  90 SE8       29.97F
WAXAHACHIE     PTSUNNY   83  66  54 SW9       29.98R
CLEBURNE       CLOUDY    75  73  94 W12       30.02R
GRANBURY       CLOUDY    75  69  81 NW12      30.02S
$$

TXZ083>090-098>101-113>116-127>130-139>142-154-155-311700-
WESTERN NORTH TEXAS

CITY           SKY/WX    TMP DP  RH WIND       PRES   REMARKS
WICHITA FALLS  CLOUDY    71  66  84 NE12      30.06S
WF-KICKAPOO    CLOUDY    72  65  78 N12       30.08S
VERNON         CLOUDY    72  64  75 N15       30.12S
ABILENE        CLOUDY    71  66  84 N13       30.12R
ABILENE-DYESS  CLOUDY    71  64  81 N13       30.12R
BRECKENRIDGE   CLOUDY    75  66  73 N13       30.07R HAZE
GRAHAM         CLOUDY    70  67  89 N12G17    30.05R FOG
MINERAL WELLS  CLOUDY    74  67  78 N14       30.02R
STEPHENVILLE   CLOUDY    73  67  79 NW9       30.07R
COMANCHE       CLOUDY    74  65  74 N14       30.07R
BROWNWOOD      CLOUDY    75  66  73 N10G17    30.07R
COLEMAN        CLOUDY    74  64  68 N14       30.09R
BRADY          PTSUNNY   75  64  69 NW9       30.08S
$$

TXZ143>147-156>162-174-175-311700-
CENTRAL TEXAS

CITY           SKY/WX    TMP DP  RH WIND       PRES   REMARKS
WACO           MOSUNNY   84  73  70 SW10      29.98R HX  91
WACO-TSTC      PTSUNNY   82  73  74 SW9       29.98R
WACO-MCGREGOR  CLOUDY    81  70  69 W6        30.01R
HILLSBORO      PTSUNNY   84  67  57 W12       29.98S
CORSICANA      CLOUDY    81  74  79 S8        29.98S
MEXIA          CLOUDY    80  75  83 S12       29.97S
HEARNE         CLOUDY    82  74  74 S9        30.01R
CAMERON        PTSUNNY   83  74  75 S9        29.99S HX  90
TEMPLE         PTSUNNY   81  72  74 S7        29.97R
KILLEEN        LGT RAIN  81  70  69 SW13      30.01R
KILLEEN-SKYLRK CLOUDY    82  70  65 W5        30.00R
FORT HOOD      CLOUDY    81  72  74 NW13      30.01R
GATESVILLE     PTSUNNY   82  70  65 W5        30.03S
HAMILTON       CLOUDY    76  66  71 N16       30.05R
LAMPASAS       CLOUDY    78  70  76 NW6       30.03R
$$

TXZ095>097-106>112-122>126-135>138-148>153-164>167-311700-
EAST TEXAS

CITY           SKY/WX    TMP DP  RH WIND       PRES   REMARKS
PARIS          CLOUDY    70  63  78 SE16      30.01S
SULPHUR SPRNGS CLOUDY    72  71  96 SE13      30.00F
CLARKSVILLE    CLOUDY    69  67  95 E6        30.03S
MOUNT PLEASANT CLOUDY    70  68  95 SE12      30.02F
GILMER         CLOUDY    70  70 100 SE10G16   30.02F
MINEOLA        CLOUDY    70  70 100 SE5       30.00S
TYLER          CLOUDY    72  70  93 SE13      29.99F
LONGVIEW       LGT RAIN  69  67  93 E9        30.03F FOG
MARSHALL       CLOUDY    71  68  92 S5        30.07S
ATHENS         CLOUDY    73  72  94 S6        29.98S
JACKSONVILLE   CLOUDY    73  70  92 E7        30.04F
HENDERSON      DRIZZLE   69  69  99 MISG      30.05F
NACOGDOCHES    CLOUDY    72  68  88 SE6       30.04S
LUFKIN         PTSUNNY   80  69  69 VRB5      30.03R
$$

SUPPLEMENTAL OBSERVATIONS (CENTRAL)

CITY           SKY/WX    TMP DP  RH WIND       PRES   REMARKS
LAKE TEXOMA      N/A     68  68 100 N7          N/A
CADDO GRASSLND   N/A     70  66  88 E3          N/A
PAT MAYSE LAKE   N/A     66  64  94 E8          N/A
GREENVILLE       N/A     73  70  88 SE8         N/A
CEDAR HILL       N/A     84  66  54 W3          N/A
LAKE LIMESTONE   N/A     82  81  94 S9          N/A  HX  95
MCGREGOR         N/A     81  68  65 NW5         N/A
TEMPLE           N/A     82  73  74 S6G14       N/A
$$

SUPPLEMENTAL OBSERVATIONS (WEST)

CITY           SKY/WX    TMP DP  RH WIND       PRES   REMARKS
MILLERS CREEK    N/A     70  64  83 VRB9        N/A
LBJ GRASSLAND    N/A     70  64  83 N9          N/A
GRANBURY         N/A     73  68  83 NW14        N/A
HAMBY            N/A     72  64  78 N10         N/A
IVIE RESERVOIR   N/A     75  63  64 NW12        N/A
COLORADO BEND    N/A     79  66  65 NW5         N/A
$$

SUPPLEMENTAL OBSERVATIONS (EAST)

CITY           SKY/WX    TMP DP  RH WIND       PRES   REMARKS
CLARKSVILLE      N/A     68  64  88 E7          N/A
GILMER           N/A     70  66  88 SE8         N/A
HENDERSON        N/A     70  66  88 CALM        N/A
LUFKIN           N/A     79  75  89 MISG        N/A
N SABINE NF      N/A     73  68  83 MISG        N/A
S SABINE NF      N/A     77  68  73 NE5         N/A
$$

SUPPLEMENTAL OBSERVATIONS ARE A COLLECTION OF AUTOMATED INSTRUMENTS
THAT ARE MAINTAINED BY A VARIETY OF FEDERAL AND STATE AGENCIES.
CERTAIN ELEMENTS...SUCH AS HUMIDITY VALUES AND SUSTAINED WIND
SPEEDS...MAY BE APPROXIMATED.